Location: Bremen
(53.0830°N, 8.8000°E)
Time: 19:32:12
(UTC+01:00)

Envisat - Pass Details

Date: 16 November 2025
Orbit: 761 x 762 km, 98.4° (Epoch: 05 December)

Event Time Altitude Azimuth Distance (km) Brightness Sun altitude
Rises 04:24:45 0° 10° (N) 3,239 6.5 -30.6°
Reaches altitude 10° 04:27:14 10° 2° (N) 2,308 5.6 -30.2°
Enters shadow 04:27:44 13° 359° (N) 2,130 5.3 -30.1°
